FW8448 Weather Reports


time (UTC)temp
C
wind
direction
speed
KPH
gust
KPH
rain 1hr
cm
rain 24hr
cm
rain mn
cm
humidity
%
barometer
mb
20260906071558 18 51 1.6 8.0 0.00 0.86 0.00 90 1015.3
20260906070101 18 51 3.2 11.3 0.00 0.86 0.00 90 1015.3
20260906064558 18 46 1.6 8.0 0.00 0.86 0.00 90 1015.3
20260906063100 19 79 3.2 9.7 0.00 0.86 0.00 90 1015.3
20260906061600 20 62 3.2 14.5 0.00 0.86 0.00 91 1015.3
20260906060058 20 15 6.4 14.5 0.00 0.86 0.00 93 1015.2
20260906054559 20 60 6.4 14.5 0.00 0.86 0.00 95 1015.1
20260906053109 21 48 1.6 11.3 0.00 0.86 0.00 95 1014.9
20260906051601 21 42 1.6 9.7 0.00 0.86 0.00 95 1014.9
20260906050057 21 69 3.2 12.9 0.00 0.86 0.00 95 1014.9
20260906044558 21 73 1.6 8.0 0.00 0.86 0.00 95 1014.7
20260906043102 21 60 4.8 14.5 0.00 0.86 0.00 96 1014.4
20260906041606 22 59 4.8 14.5 0.00 0.86 0.00 96 1014.3
20260906040112 22 57 3.2 9.7 0.00 0.86 0.00 96 1014.4
20260906034607 22 56 1.6 6.4 0.00 0.86 0.86 96 1014.3
20260906033111 22 56 1.6 8.0 0.00 0.86 0.86 96 1014.3
20260906031603 22 0 3.2 8.0 0.00 0.86 0.86 96 1014.3
20260906024600 22 49 4.8 12.9 0.00 0.86 0.86 96 1014.3
20260906023100 22 36 4.8 14.5 0.00 0.86 0.86 96 1014.3
20260906021605 22 67 3.2 9.7 0.00 0.86 0.86 96 1014.2
20260906020107 22 58 4.8 9.7 0.00 0.86 0.86 97 1014.0
20260906014604 22 59 1.6 8.0 0.00 0.86 0.86 97 1013.8
20260906013110 21 0 0.0 0.0 0.00 0.86 0.86 97 1013.7
20260906011607 21 0 0.0 0.0 0.00 0.86 0.86 97 1013.4
20260906004611 21 0 0.0 0.0 0.00 0.86 0.86 96 1013.1
20260906003106 21 0 0.0 0.0 0.00 0.86 0.86 96 1012.8
20260906001602 21 0 0.0 0.0 0.00 0.86 0.86 96 1012.6
20260905234604 21 0 0.0 1.6 0.15 0.86 0.86 96 1012.6
20260905233103 21 221 0.0 0.0 0.76 0.86 0.86 96 1012.4
20260905231600 21 0 0.0 4.8 0.86 0.86 0.86 95 1012.5
20260905224603 22 280 6.4 20.9 0.71 0.71 0.71 92 1014.2
20260905223100 25 79 1.6 14.5 0.08 0.08 0.08 86 1013.3
20260905221554 27 51 1.6 17.7 0.00 0.00 0.00 82 1012.7
20260905220106 29 59 3.2 12.9 0.00 0.00 0.00 78 1012.0
20260905214606 30 0 0.0 4.8 0.00 0.00 0.00 76 1011.9
20260905213111 31 0 0.0 6.4 0.00 0.00 0.00 74 1012.2
20260905211600 32 0 3.2 12.9 0.00 0.00 0.00 71 1011.7
20260905210123 32 281 3.2 12.9 0.00 0.00 0.00 68 1012.0
20260905204604 32 0 0.0 3.2 0.00 0.00 0.00 70 1012.3
20260905203058 32 268 6.4 14.5 0.00 0.00 0.00 68 1012.4
20260905201557 32 278 0.0 3.2 0.00 0.00 0.00 69 1012.5
20260905194610 32 279 1.6 9.7 0.00 0.00 0.00 69 1012.9
20260905193056 32 269 3.2 14.5 0.00 0.00 0.00 69 1013.0
20260905191609 31 271 1.6 14.5 0.00 0.00 0.00 72 1013.2
20260905190117 31 292 4.8 12.9 0.00 0.00 0.00 73 1013.5
20260905184623 31 0 0.0 0.0 0.00 0.00 0.00 71 1013.7
20260905183104 31 0 0.0 11.3 0.00 0.00 0.00 71 1014.0
20260905181559 30 273 4.8 16.1 0.00 0.00 0.00 71 1013.9
20260905180108 29 289 14.5 20.9 0.00 0.00 0.00 70 1014.0
20260905174603 29 271 6.4 16.1 0.00 0.00 0.00 74 1014.0
20260905173116 28 273 8.0 20.9 0.00 0.00 0.00 73 1014.0
20260905171605 28 279 9.7 16.1 0.00 0.00 0.00 73 1014.2
20260905170101 27 267 6.4 16.1 0.00 0.00 0.00 78 1014.5
20260905164603 27 254 1.6 9.7 0.00 0.00 0.00 75 1015.0
20260905163110 28 243 8.0 14.5 0.00 0.00 0.00 72 1015.0
20260905161603 28 283 3.2 11.3 0.00 0.00 0.00 76 1015.2
20260905160059 28 198 6.4 17.7 0.00 0.00 0.00 77 1015.1
20260905154616 27 213 3.2 12.9 0.00 0.00 0.00 76 1015.0
20260905153107 27 157 1.6 12.9 0.00 0.00 0.00 79 1015.0
20260905151613 26 236 3.2 8.0 0.00 0.00 0.00 78 1014.6
20260905150059 26 223 3.2 11.3 0.00 0.00 0.00 78 1014.5
20260905144559 25 245 1.6 9.7 0.00 0.00 0.00 83 1014.6
20260905143100 25 0 0.0 0.0 0.00 0.00 0.00 82 1014.7
20260905141602 24 0 0.0 0.0 0.00 0.00 0.00 82 1014.9
20260905140059 23 0 0.0 9.7 0.00 0.00 0.00 84 1015.0
20260905134559 23 187 1.6 11.3 0.00 0.00 0.00 86 1015.2
20260905133103 23 0 3.2 9.7 0.00 0.00 0.00 86 1015.4
20260905131603 22 110 0.0 9.7 0.00 0.00 0.00 87 1015.4
20260905130059 22 180 3.2 16.1 0.00 0.00 0.00 87 1015.5
20260905124601 21 63 1.6 11.3 0.00 0.00 0.00 88 1015.6
20260905123104 20 0 0.0 3.2 0.00 0.00 0.00 90 1015.4
20260905121602 20 62 3.2 8.0 0.00 0.00 0.00 90 1015.1
20260905120057 21 79 3.2 14.5 0.00 0.00 0.00 89 1015.0
20260905114557 20 80 1.6 9.7 0.00 0.00 0.00 89 1015.3
20260905113101 20 38 0.0 8.0 0.00 0.00 0.00 90 1015.3
20260905111645 21 109 1.6 11.3 0.00 0.00 0.00 89 1015.1
20260905110057 21 94 3.2 17.7 0.00 0.00 0.00 89 1015.2
20260905104604 21 88 6.4 19.3 0.00 0.00 0.00 89 1015.6
20260905103104 21 69 8.0 19.3 0.00 0.00 0.00 89 1015.6
20260905101605 21 81 9.7 20.9 0.00 0.00 0.00 88 1015.7
20260905100106 21 51 9.7 29.0 0.00 0.00 0.00 87 1015.7
20260905094601 21 150 14.5 33.8 0.00 0.00 0.00 87 1015.5
20260905093100 21 61 16.1 32.2 0.00 0.00 0.00 94 1015.5
20260905091601 21 0 0.0 0.0 0.00 0.00 0.00 97 1014.1
20260905090058 21 0 0.0 0.0 0.00 0.00 0.00 97 1014.1
20260905084605 21 0 0.0 0.0 0.00 0.00 0.00 96 1014.0
20260905083053 22 0 0.0 0.0 0.00 0.00 0.00 97 1013.8
20260905081558 22 0 0.0 1.6 0.00 0.00 0.00 97 1013.8
20260905080110 22 0 0.0 0.0 0.00 0.00 0.00 97 1013.7
20260905074557 22 0 0.0 0.0 0.00 0.00 0.00 97 1013.6
20260905073103 21 0 0.0 0.0 0.00 0.00 0.00 97 1013.4